| time (UTC) | temp F | wind direction | speed MPH | gust MPH | rain 1hr in | rain 24hr in | rain mn in | humidity % | barometer mb |
| 20260506112626 | 65 | 134 | 1.0 | 8.0 | 0.00 | 0.00 | 0.00 | 80 | 1009.5 |
| 20260506111123 | 64 | 139 | 0.0 | 9.0 | 0.00 | 0.00 | 0.00 | 81 | 1009.4 |
| 20260506105624 | 64 | 190 | 1.0 | 5.0 | 0.00 | 0.00 | 0.00 | 81 | 1009.4 |
| 20260506104143 | 64 | 196 | 1.0 | 8.0 | 0.00 | 0.00 | 0.00 | 81 | 1009.4 |
| 20260506102633 | 64 | 261 | 0.0 | 4.0 | 0.00 | 0.00 | 0.00 | 80 | 1009.3 |
| 20260506101130 | 64 | 134 | 0.0 | 4.0 | 0.00 | 0.00 | 0.00 | 80 | 1009.1 |
| 20260506095627 | 64 | 109 | 0.0 | 4.0 | 0.00 | 0.00 | 0.00 | 79 | 1009.1 |
| 20260506094125 | 64 | 156 | 0.0 | 5.0 | 0.00 | 0.00 | 0.00 | 78 | 1009.2 |
| 20260506092703 | 65 | 175 | 0.0 | 8.0 | 0.00 | 0.00 | 0.00 | 78 | 1009.2 |
| 20260506091141 | 65 | 132 | 1.0 | 3.0 | 0.00 | 0.00 | 0.00 | 78 | 1009.2 |
| 20260506085631 | 65 | 137 | 0.0 | 7.0 | 0.00 | 0.00 | 0.00 | 77 | 1009.3 |
| 20260506084130 | 65 | 216 | 1.0 | 5.0 | 0.00 | 0.00 | 0.00 | 77 | 1009.4 |
| 20260506082641 | 65 | 215 | 1.0 | 5.0 | 0.00 | 0.00 | 0.00 | 76 | 1009.3 |
| 20260506081159 | 66 | 199 | 1.0 | 5.0 | 0.00 | 0.00 | 0.00 | 76 | 1009.4 |
| 20260506072625 | 66 | 157 | 0.0 | 5.0 | 0.00 | 0.00 | 0.00 | 74 | 1009.4 |
| 20260506071141 | 66 | 182 | 1.0 | 4.0 | 0.00 | 0.00 | 0.00 | 73 | 1009.6 |
| 20260506061144 | 68 | 244 | 1.0 | 4.0 | 0.00 | 0.00 | 0.00 | 69 | 1009.7 |
| 20260506051137 | 69 | 196 | 0.0 | 4.0 | 0.00 | 0.00 | 0.00 | 67 | 1010.1 |
| 20260506044133 | 69 | 173 | 0.0 | 6.0 | 0.00 | 0.00 | 0.00 | 66 | 1010.3 |
| 20260506042642 | 69 | 232 | 0.0 | 4.0 | 0.00 | 0.00 | 0.00 | 65 | 1010.2 |
| 20260506041139 | 69 | 254 | 1.0 | 7.0 | 0.00 | 0.00 | 0.00 | 64 | 1010.1 |
| 20260506035650 | 69 | 181 | 1.0 | 4.0 | 0.00 | 0.00 | 0.00 | 63 | 1010.2 |
| 20260506034138 | 70 | 193 | 0.0 | 3.0 | 0.00 | 0.00 | 0.00 | 62 | 1010.2 |
| 20260506032631 | 70 | 200 | 0.0 | 4.0 | 0.00 | 0.00 | 0.00 | 61 | 1010.2 |
| 20260506031127 | 70 | 236 | 0.0 | 15.0 | 0.00 | 0.00 | 0.00 | 61 | 1010.0 |
| 20260506025643 | 71 | 186 | 2.0 | 5.0 | 0.00 | 0.00 | 0.00 | 60 | 1010.0 |
| 20260506024141 | 71 | 194 | 2.0 | 7.0 | 0.00 | 0.00 | 0.00 | 59 | 1010.1 |
| 20260506022649 | 72 | 211 | 0.0 | 4.0 | 0.00 | 0.00 | 0.00 | 58 | 1010.1 |
| 20260506021124 | 72 | 167 | 1.0 | 10.0 | 0.00 | 0.00 | 0.00 | 57 | 1010.1 |
| 20260506015636 | 73 | 182 | 3.0 | 9.0 | 0.00 | 0.00 | 0.00 | 55 | 1010.1 |
| 20260506014135 | 74 | 229 | 1.0 | 6.0 | 0.00 | 0.00 | 0.00 | 54 | 1009.9 |
| 20260505152647 | 75 | 103 | 3.0 | 13.0 | 0.00 | 0.00 | 0.00 | 55 | 1010.6 |
| 20260505151127 | 74 | 130 | 0.0 | 9.0 | 0.00 | 0.00 | 0.00 | 56 | 1010.6 |
| 20260505124132 | 61 | 145 | 0.0 | 2.0 | 0.00 | 0.00 | 0.00 | 80 | 1010.6 |
| 20260505122624 | 60 | 213 | 0.0 | 2.0 | 0.00 | 0.00 | 0.00 | 82 | 1010.8 |
| 20260505121208 | 59 | 213 | 0.0 | 1.0 | 0.00 | 0.00 | 0.00 | 85 | 1010.9 |
| 20260505115639 | 58 | 213 | 0.0 | 4.0 | 0.00 | 0.00 | 0.00 | 86 | 1011.0 |
| 20260505114155 | 57 | 221 | 0.0 | 0.0 | 0.00 | 0.00 | 0.00 | 88 | 1011.0 |